SCP
0 0 1 1 1 0 0 0 0 0 0 0 0 0 0 0 0 0 0 0 0 0
0 0 1 1 1 0 0 0 0 0 0 0 0 0 0 0 0 0 0 0 0 0
0 0 2 1 0 0 0 0 0 0 0 0 0 0 0 0 0 0 0 0 0 0
0 1 1 1 0 0 0 0 0 0 0 0 0 0 0 0 0 0 0 0 0 0
1 1 2 1 0 0 0 0 0 0 0 0 0 0 0 0 0 0 0 0 0 0
0 0 0 0 0 0 0 0 0 0 0 0 0 0 0 0 0 0 0 0 0 0
0 0 0 0 0 0 0 0 0 0 0 0 0 0 0 0 0 0 0 0 0 0
0 0 0 0 0 0 0 0 0 0 0 0 0 0 0 0 0 0 0 0 0 0
0 0 0 0 0 0 0 0 0 0 0 0 0 0 0 0 0 0 0 0 0 0
0 0 0 0 0 0 0 0 0 0 0 0 0 0 0 0 0 0 0 0 0 0
0 0 0 0 0 0 0 0 0 0 0 0 0 0 0 0 0 0 0 0 0 0
0 0 0 0 0 0 0 0 0 0 0 0 0 0 0 0 0 0 0 0 0 0
0 0 0 0 0 0 0 0 0 0 0 0 0 0 0 0 0 0 0 0 0 0
0 0 0 0 0 0 0 0 0 0 0 0 0 0 0 0 0 0 0 0 0 0
Wind_Speed_500mb
87 94 80 77 76 86 104 95 102 85 99 78 66 84 91 91 86 104 103 105 104 95
85 97 75 72 71 81 90 104 100 83 87 86 73 76 99 99 89 114 111 110 106 97
81 92 71 77 74 71 101 95 97 94 84 78 69 80 97 95 115 121 116 109 106 106
81 80 80 77 78 87 74 101 91 91 79 55 59 77 91 98 97 98 104 117 113 94
76 75 82 78 83 78 77 82 76 89 61 44 33 48 55 75 55 66 91 97 103 98
77 85 77 84 69 69 55 54 62 61 57 61 51 33 19 26 44 52 45 66 97 112
84 79 70 59 58 79 63 57 61 69 70 56 47 50 56 51 36 50 53 52 77 91
75 67 68 59 51 58 67 76 71 73 70 66 70 58 58 55 39 36 39 46 46 49
76 75 67 69 64 54 47 55 63 75 74 60 60 66 53 58 51 50 57 57 57 68
82 79 66 77 68 65 58 62 51 48 46 42 40 39 47 46 50 52 51 58 51 60
77 74 58 68 67 62 50 48 47 44 42 37 35 32 32 33 29 31 46 50 49 48
72 63 51 58 56 51 43 46 44 42 36 28 26 23 24 26 29 36 41 41 46 46
72 69 65 57 47 38 33 38 33 32 29 23 22 22 26 26 28 28 37 41 41 45
73 68 63 54 52 48 43 38 32 26 23 19 17 15 16 17 20 22 24 26 30 29
Wind_Direction_500mb
230 234 230 222 227 214 203 212 206 206 212 218 215 212 205 200 210 202 200 194 192 187
225 229 223 217 224 218 205 206 209 204 208 206 211 217 215 206 219 201 200 197 194 190
221 224 211 219 212 203 200 208 202 203 205 204 205 206 211 212 211 204 200 202 199 199
216 213 198 210 213 211 210 204 200 196 196 192 204 210 214 216 206 210 209 204 202 202
207 193 194 200 205 205 208 200 182 184 162 160 143 201 213 215 218 224 216 212 203 198
191 180 183 197 191 168 171 179 185 186 177 176 178 168 166 204 221 209 214 223 206 200
168 168 175 175 180 178 167 180 184 176 168 170 172 186 190 198 199 212 211 222 213 206
138 146 166 163 181 167 172 184 176 177 168 165 169 170 180 183 170 184 188 201 192 212
124 142 147 145 150 143 143 151 170 175 173 176 177 182 187 190 187 183 185 195 209 214
106 111 110 126 130 145 138 150 146 148 152 156 171 190 203 218 219 205 199 205 208 205
96 104 110 103 108 112 128 132 136 133 134 148 162 171 173 180 194 207 211 206 202 203
88 93 100 100 102 100 106 102 111 117 140 152 169 178 189 202 204 209 222 212 209 208
78 82 88 92 101 109 112 107 106 113 119 138 147 161 187 193 202 200 207 207 220 225
75 78 79 81 83 87 95 108 118 124 132 141 158 168 177 163 178 188 191 195 199 200
Wind_Speed_850mb
87 94 80 77 76 86 104 95 102 85 99 78 66 84 91 91 86 104 103 105 104 95
85 97 75 72 71 81 90 104 100 83 87 86 73 76 99 99 89 114 111 110 106 97
81 92 71 77 74 71 101 95 97 94 84 78 69 80 97 95 115 121 116 109 106 106
81 80 80 77 78 87 74 101 91 91 79 55 59 77 91 98 97 98 104 117 113 94
76 75 82 78 83 78 77 82 76 89 61 44 33 48 55 75 55 66 91 97 103 98
77 85 77 84 69 69 55 54 62 61 57 61 51 33 19 26 44 52 45 66 97 112
84 79 70 59 58 79 63 57 61 69 70 56 47 50 56 51 36 50 53 52 77 91
75 67 68 59 51 58 67 76 71 73 70 66 70 58 58 55 39 36 39 46 46 49
76 75 67 69 64 54 47 55 63 75 74 60 60 66 53 58 51 50 57 57 57 68
82 79 66 77 68 65 58 62 51 48 46 42 40 39 47 46 50 52 51 58 51 60
77 74 58 68 67 62 50 48 47 44 42 37 35 32 32 33 29 31 46 50 49 48
72 63 51 58 56 51 43 46 44 42 36 28 26 23 24 26 29 36 41 41 46 46
72 69 65 57 47 38 33 38 33 32 29 23 22 22 26 26 28 28 37 41 41 45
73 68 63 54 52 48 43 38 32 26 23 19 17 15 16 17 20 22 24 26 30 29
Wind_Direction_850mb
230 234 230 222 227 214 203 212 206 206 212 218 215 212 205 200 210 202 200 194 192 187
225 229 223 217 224 218 205 206 209 204 208 206 211 217 215 206 219 201 200 197 194 190
221 224 211 219 212 203 200 208 202 203 205 204 205 206 211 212 211 204 200 202 199 199
216 213 198 210 213 211 210 204 200 196 196 192 204 210 214 216 206 210 209 204 202 202
207 193 194 200 205 205 208 200 182 184 162 160 143 201 213 215 218 224 216 212 203 198
191 180 183 197 191 168 171 179 185 186 177 176 178 168 166 204 221 209 214 223 206 200
168 168 175 175 180 178 167 180 184 176 168 170 172 186 190 198 199 212 211 222 213 206
138 146 166 163 181 167 172 184 176 177 168 165 169 170 180 183 170 184 188 201 192 212
124 142 147 145 150 143 143 151 170 175 173 176 177 182 187 190 187 183 185 195 209 214
106 111 110 126 130 145 138 150 146 148 152 156 171 190 203 218 219 205 199 205 208 205
96 104 110 103 108 112 128 132 136 133 134 148 162 171 173 180 194 207 211 206 202 203
88 93 100 100 102 100 106 102 111 117 140 152 169 178 189 202 204 209 222 212 209 208
78 82 88 92 101 109 112 107 106 113 119 138 147 161 187 193 202 200 207 207 220 225
75 78 79 81 83 87 95 108 118 124 132 141 158 168 177 163 178 188 191 195 199 200